This is the latest recevied weather packets stored in our database for station/object DB0LS-15. If no packets are shown the sender has not sent any weather packets the latest 1 day(s).
| Time | Temp. | Humidity | Pressure | Rain* | Wind** | Luminosity | Snow |
|---|---|---|---|---|---|---|---|
| 1777988129 | 16.67° C | 85% | 990.1 hPa | 0 mm | 2.24 m/s, 23° | - | - |
| 1777987525 | 16.67° C | 85% | 989.9 hPa | 0 mm | 0.89 m/s, 14° | - | - |
| 1777986921 | 17.22° C | 85% | 990.1 hPa | 0 mm | 0.89 m/s, 26° | - | - |
| 1777986318 | 16.67° C | 83% | 990 hPa | 0 mm | 1.34 m/s, 31° | - | - |
| 1777985774 | 17.22° C | 81% | 990.2 hPa | 0 mm | 1.79 m/s, 23° | - | - |
| 1777985170 | 17.78° C | 82% | 990.3 hPa | 0 mm | 0.89 m/s, 355° | - | - |
| 1777984567 | 17.78° C | 83% | 990.3 hPa | 0 mm | 1.34 m/s, 341° | - | - |
| 1777983963 | 17.78° C | 80% | 990.4 hPa | 0 mm | 0.89 m/s, 35° | - | - |
| 1777983359 | 17.78° C | 77% | 990.4 hPa | 0 mm | 1.34 m/s, 27° | - | - |
| 1777982755 | 17.78° C | 78% | 990.5 hPa | 0 mm | 2.24 m/s, 42° | - | - |
| 1777982151 | 17.78° C | 79% | 990.3 hPa | 0 mm | 1.79 m/s, 27° | - | - |
| 1777981548 | 17.78° C | 78% | 990.5 hPa | 0 mm | 1.34 m/s, 30° | - | - |
| 1777980944 | 17.78° C | 80% | 990.5 hPa | 0 mm | 1.34 m/s, 9° | - | - |
| 1777980340 | 17.22° C | 88% | 990.7 hPa | 0 mm | 1.34 m/s, 321° | - | - |
| 1777979736 | 16.67° C | 91% | 990.6 hPa | 0 mm | 0.89 m/s, 315° | - | - |
| 1777979132 | 16.67° C | 90% | 990.8 hPa | 0 mm | 0.89 m/s, 305° | - | - |
| 1777978528 | 16.67° C | 89% | 990.9 hPa | 0 mm | 0.89 m/s, 21° | - | - |
| 1777977925 | 16.67° C | 90% | 990.9 hPa | 0 mm | 1.34 m/s, 311° | - | - |
| 1777977320 | 16.67° C | 91% | 990.9 hPa | 0 mm | 0.45 m/s, 357° | - | - |
| 1777976717 | 15.56° C | 92% | 991 hPa | 0 mm | 1.34 m/s, 38° | - | - |
| 1777976173 | 15.56° C | 95% | 991.1 hPa | 0 mm | 0.45 m/s, 16° | - | - |
| 1777975569 | 15° C | 96% | 991.1 hPa | 0 mm | 0.89 m/s, 333° | - | - |
| 1777974966 | 15° C | 96% | 991.1 hPa | 0.25 mm | 1.34 m/s, 311° | - | - |
| 1777974362 | 14.44° C | 96% | 991.2 hPa | 0.25 mm | 0.89 m/s, 47° | - | - |
| 1777973758 | 14.44° C | 96% | 991.1 hPa | 0.25 mm | 0.89 m/s, 86° | - | - |
* Rain latest hour (hover to see other rain measurements)
** Current wind speed in m/s (hover to see current wind gust speed)